This demonstration page uses our WeatherBlox Daily Observations layout. Learn more.

Left ArrowRight Arrow

38.88101, -77.10428

Hourly Observations for May 10, 2015

Temp ( °F °C ) Dew Point ( °F °C ) Humidity (%) Winds ( mph kmh ) Pressure ( in mb ) Visibility ( mi km ) Precip ( " mm )
12:52 am 00:52 Mostly Clear 71 21.7 66 18.9 84 84 SSE 5 7 30.21 1023 10 16 0.00 0.00
1:52 am 01:52 Partly Cloudy 70 21.1 66 18.9 87 87 SSE 3 6 30.20 1023 10 16 0.00 0.00
2:17 am 02:17 Mostly Cloudy 70 21 64 18 83 83 Calm 30.21 1023 10 16 0.00 0.00
2:26 am 02:26 Partly Cloudy 70 21 66 19 88 88 Calm 30.21 1023 10 16 0.00 0.00
2:52 am 02:52 Mostly Cloudy 70 21.1 65 18.3 84 84 SE 3 6 30.19 1023 10 16 0.00 0.00
3:52 am 03:52 Cloudy 70 21.1 66 18.9 87 87 SE 3 6 30.18 1022 10 16 0.00 0.00
4:32 am 04:32 Cloudy 72 22 66 19 83 83 Calm 30.18 1022 10 16 0.00 0.00
4:52 am 04:52 Cloudy 71 21.7 66 18.9 84 84 SSE 3 6 30.19 1023 10 16 0.00 0.00
5:52 am 05:52 Cloudy 71 21.7 67 19.4 87 87 SSE 3 6 30.20 1023 10 16 0.00 0.00
6:03 am 06:03 Cloudy 72 22 66 19 83 83 SE 5 7 30.21 1023 8 13 0.00 0.00
6:39 am 06:39 Cloudy 72 22 66 19 83 83 Calm 30.21 1023 9 14 0.00 0.00
6:52 am 06:52 Cloudy 71 21.7 67 19.4 87 87 SE 3 6 30.22 1023 10 16 0.00 0.00
7:09 am 07:09 Cloudy 72 22 66 19 83 83 Calm 30.21 1023 10 16 0.00 0.00
7:52 am 07:52 Cloudy 71 21.7 67 19.4 87 87 SSE 6 9 30.23 1024 8 13 0.00 0.00
8:52 am 08:52 Cloudy 73 22.8 68 20 84 84 S 8 13 30.23 1024 9 14 0.00 0.00
9:28 am 09:28 Mostly Cloudy 75 24 68 20 78 78 S 8 13 30.21 1023 10 16 0.00 0.00
9:52 am 09:52 Mostly Cloudy 75 23.9 68 20 79 79 S 7 11 30.22 1023 10 16 0.00 0.00
10:52 am 10:52 Mostly Cloudy 78 25.6 68 20 71 71 S 7 11 30.22 1023 10 16 0.00 0.00
11:48 am 11:48 Mostly Cloudy 81 27 68 20 66 66 S 7 11 30.21 1023 10 16 0.00 0.00
11:52 am 11:52 Mostly Cloudy 80 26.7 68 20 67 67 S 8 13 30.21 1023 10 16 0.00 0.00
12:52 pm 12:52 Mostly Cloudy 81 27.2 68 20 65 65 SSE 8 13 30.20 1023 10 16 0.00 0.00
1:52 pm 13:52 Mostly Cloudy 83 28.3 68 20 61 61 S 9 15 30.18 1022 10 16 0.00 0.00
2:52 pm 14:52 Mostly Cloudy 84 28.9 66 18.9 55 55 SSE 7 11 30.16 1022 10 16 0.00 0.00
3:52 pm 15:52 Mostly Cloudy 84 28.9 66 18.9 55 55 Calm 30.14 1021 10 16 0.00 0.00
4:52 pm 16:52 Mostly Cloudy 84 28.9 67 19.4 57 57 SE 10 17 30.14 1021 10 16 0.00 0.00
5:52 pm 17:52 Mostly Cloudy 83 28.3 66 18.9 57 57 S 5 7 30.12 1020 10 16 0.00 0.00
6:52 pm 18:52 Partly Cloudy 82 27.8 64 17.8 55 55 SSE 8 13 30.10 1019 10 16 0.00 0.00
7:52 pm 19:52 Partly Cloudy 81 27.2 65 18.3 58 58 SE 10 17 30.11 1020 10 16 0.00 0.00
8:52 pm 20:52 Partly Cloudy 78 25.6 68 20 71 71 SSE 8 13 30.14 1021 10 16 0.00 0.00
9:52 pm 21:52 Mostly Clear 76 24.4 68 20 77 77 SSE 10 17 30.14 1021 10 16 0.00 0.00
10:52 pm 22:52 Mostly Clear 75 23.9 68 20 79 79 SSE 9 15 30.14 1021 10 16 0.00 0.00
11:52 pm 23:52 Partly Cloudy 73 22.8 68 20 84 84 S 10 17 30.14 1021 10 16 0.00 0.00

Powered by AerisWeather